Flag for Switzerland Weather past 2 weeks in Delémont, Jura, Switzerland

Now
35 °F

Chilly.


Feels Like: 27 °F
Forecast: 20 / 36 °F
Wind: 13 mph from Northeast

Location: Grenchen

Current Time: Jan 25, 2015 at 1:37:09 PM

Latest Report: Jan 25, 2015 at 1:00 PM


Visibility: N/A

Pressure: 30.47 "Hg

Humidity: 63%

Dew point: 24 °F

Location of DelémontLocation

Historic Weather in Delémont — Graph

°F

Delémont temperature yesterday

Maximum temperature yesterday: 37 °F (at 1:00 PM)
Minimum temperature yesterday: 32 °F (at 10:00 PM)
Average temperature yesterday: 34 °F

Past Weeks' High & Low Weather Summary

 TemperatureHumidityPressure
High57 °F (Jan 10, 3:00 PM)100% (Jan 13, 4:00 AM)30.56 "Hg (Jan 13, 4:00 AM)
Low23 °F (Jan 13, 8:00 AM)54% (Jan 13, 3:00 PM)29.72 "Hg (Jan 16, 4:00 PM)
Average36 °F89%30.10 "Hg
* Reported Jan 10 12:00 Noon — Jan 25 12:00 Noon, Delémont, Weather by CustomWeather, © 2014

Note: Actual official high and low records may vary slightly from our data, if they occured in-between our weather recording intervals... More about our weather records

Advertising

Delémont weather history for previous 24 hours

 ConditionsComfort  
Time TempWeatherWind HumidityBarometerVisibility
12:00 PM
Jan 25
35 °FChilly.6 mph67%30.48 "HgN/A
11:00 AM35 °FChilly.7 mph67%30.48 "HgN/A
10:00 AM33 °FChilly.3 mph75%30.47 "HgN/A
9:00 AM33 °FChilly.14 mph68%30.46 "HgN/A
8:00 AM33 °FChilly.12 mph67%30.44 "HgN/A
7:00 AM34 °FChilly.12 mph67%30.41 "HgN/A
6:00 AM34 °FChilly.16 mph72%30.38 "HgN/A
5:00 AM35 °FChilly.12 mph72%30.37 "HgN/A
4:00 AM35 °FChilly.13 mph76%30.36 "HgN/A
3:00 AM34 °FChilly.3 mph82%30.37 "HgN/A
2:00 AM31 °FChilly.1 mph96%30.37 "HgN/A
1:00 AM31 °FChilly.1 mph94%30.36 "HgN/A
12:00 AM32 °FChilly.1 mph91%30.34 "HgN/A
11:00 PM
Jan 24
32 °FChilly.3 mph88%30.33 "HgN/A
10:00 PM32 °FChilly.1 mph88%30.33 "HgN/A
9:00 PM33 °FChilly.2 mph78%30.30 "HgN/A
8:00 PM33 °FChilly.2 mph77%30.28 "HgN/A
7:00 PM34 °FChilly.7 mph79%30.25 "HgN/A
6:00 PM33 °FChilly.6 mph98%30.23 "HgN/A
5:00 PM32 °FChilly.8 mph99%30.21 "HgN/A
4:00 PM32 °FChilly.8 mph99%30.20 "HgN/A
3:00 PM36 °FChilly.9 mph75%30.16 "HgN/A
2:00 PM37 °FChilly.8 mph73%30.17 "HgN/A
1:00 PM37 °FChilly.10 mph80%30.18 "HgN/A
Weather by CustomWeather, © 2014

See weather overviewHow to use our weather pages